Ashtabula, OH

8:43 PM EST on December 06, 2019 (GMT -0500)
Ashtabula County

Weather History for KHZY - September, 2019

Change the Weather History Date:

Thursday, September 12, 2019

  Actual Average (KGKJ) Record (KGKJ)
Temperature  
Mean Temperature 66 °F -  
Max Temperature 71 °F 74 °F 93 °F (1952)
Min Temperature 61 °F 49 °F 35 °F (1967)
Cooling Degree Days 1    
Growing Degree Days 16 (Base 50)    
Moisture  
Dew Point 66 °F    
Average Humidity 96    
Maximum Humidity 100    
Minimum Humidity 87    
Precipitation  
Precipitation 1.08 in - - ()
Sea Level Pressure  
Sea Level Pressure 30.16 in    
Wind  
Wind Speed 7 mph (NNE)    
Max Wind Speed 22 mph    
Max Gust Speed 26 mph    
Visibility 8 miles    
Events Rain , Thunderstorm    
Averages and records for this station are not official NWS values.
T = Trace of Precipitation, MM = Missing Value Source: NWS Daily Summary

Daily Weather History Graph

Daily Weather History Graph

Search for Another Location

Airport or City:

Astronomy

Sep. 12, 2019 Rise Set
Actual Time 6:59 AM EDT 7:37 PM EDT
Civil Twilight 6:31 AM EDT 8:05 PM EDT
Nautical Twilight 5:58 AM EDT 8:38 PM EDT
Astronomical Twilight 5:24 AM EDT 9:13 PM EDT
Moon 7:23 PM EDT (9/12) 5:15 AM EDT (9/12)
Length of Visible Light 13h 34m
Length of Day
12h 38m
Waxing Gibbous, 98% of the Moon is Illuminated
Sep 12
Waxing Gibbous
Sep 14
Full
Sep 21
Last Quarter
Sep 28
New
Oct 5
First Quarter

Hourly Weather History & Observations

Time (EDT) Temp. Dew Point Humidity Pressure Visibility Wind Dir Wind Speed Gust Speed Precip Events Conditions
12:36 AM 70.0 °F 70.0 °F 100% 30.08 in 7.0 mi SSE 5.8 mph - N/A Thunderstorm Thunderstorm
12:53 AM 70.0 °F 70.0 °F 100% 30.07 in 3.0 mi Variable 4.6 mph - 0.06 in Rain , Thunderstorm Light Thunderstorms and Rain
12:57 AM 70.0 °F 70.0 °F 100% 30.09 in 1.8 mi SSE 3.5 mph - 0.06 in Rain , Thunderstorm Heavy Thunderstorms and Rain
1:08 AM 70.0 °F 70.0 °F 100% 30.10 in 1.0 mi SSW 10.4 mph - 0.41 in Rain , Thunderstorm Heavy Thunderstorms and Rain
1:17 AM 70.0 °F 70.0 °F 100% 30.10 in 0.8 mi WSW 21.9 mph 26.5 mph 0.78 in Rain , Thunderstorm Heavy Thunderstorms and Rain
1:26 AM 70.0 °F 70.0 °F 100% 30.09 in 1.0 mi SW 17.3 mph - 0.97 in Rain , Thunderstorm Heavy Thunderstorms and Rain
1:29 AM 70.0 °F 69.1 °F 97% 30.09 in 2.0 mi SW 13.8 mph - 0.97 in Rain , Thunderstorm Thunderstorms and Rain
1:33 AM 70.0 °F 69.1 °F 97% 30.09 in 5.0 mi SSW 10.4 mph - 0.97 in Rain , Thunderstorm Light Thunderstorms and Rain
1:49 AM 69.8 °F 69.8 °F 100% 30.08 in 10.0 mi SSW 6.9 mph - 0.98 in Rain , Thunderstorm Light Rain
1:53 AM 69.1 °F 68.0 °F 96% 30.06 in 10.0 mi South 5.8 mph - 0.98 in Thunderstorm Scattered Clouds
2:01 AM 69.1 °F 68.0 °F 96% 30.08 in 9.0 mi South 4.6 mph - 0.01 in Rain Light Rain
2:53 AM 68.0 °F 68.0 °F 100% 30.06 in 10.0 mi West 3.5 mph - 0.03 in   Mostly Cloudy
3:53 AM 68.0 °F 68.0 °F 100% 30.06 in 10.0 mi WSW 4.6 mph - N/A   Mostly Cloudy
4:53 AM 68.0 °F 68.0 °F 100% 30.08 in 10.0 mi SSW 3.5 mph - N/A   Mostly Cloudy
5:53 AM 68.0 °F 68.0 °F 100% 30.09 in 10.0 mi WSW 4.6 mph - 0.01 in   Overcast
6:53 AM 68.0 °F 68.0 °F 100% 30.12 in 10.0 mi WNW 3.5 mph - N/A   Overcast
7:02 AM 69.1 °F 68.0 °F 96% 30.14 in 10.0 mi West 5.8 mph - N/A   Overcast
7:53 AM 69.1 °F 69.1 °F 100% 30.13 in 8.0 mi WNW 3.5 mph - N/A   Overcast
8:53 AM 70.0 °F 69.1 °F 97% 30.14 in 10.0 mi West 5.8 mph - N/A   Overcast
9:53 AM 71.1 °F 70.0 °F 96% 30.15 in 10.0 mi West 5.8 mph - N/A   Overcast
10:38 AM 69.1 °F 69.1 °F 100% 30.17 in 5.0 mi NNE 3.5 mph - N/A   Overcast
10:53 AM 69.1 °F 69.1 °F 100% 30.16 in 4.0 mi Variable 4.6 mph - N/A   Overcast
11:22 AM 68.0 °F 68.0 °F 100% 30.18 in 2.0 mi NNE 3.5 mph - N/A   Overcast
11:45 AM 69.1 °F 68.0 °F 96% 30.18 in 3.0 mi Variable 3.5 mph - N/A   Overcast
11:53 AM 69.1 °F 68.0 °F 96% 30.17 in 3.0 mi North 5.8 mph - N/A   Overcast
12:08 PM 68.0 °F 68.0 °F 100% 30.18 in 2.0 mi NNE 4.6 mph - N/A   Overcast
12:35 PM 68.0 °F 68.0 °F 100% 30.18 in 3.0 mi NNE 5.8 mph - N/A   Overcast
12:53 PM 68.0 °F 66.9 °F 96% 30.17 in 6.0 mi NNE 4.6 mph - N/A   Overcast
1:53 PM 66.0 °F 64.9 °F 96% 30.19 in 9.0 mi Variable 4.6 mph - N/A   Overcast
2:12 PM 66.0 °F 64.9 °F 96% 30.20 in 10.0 mi Variable 4.6 mph - N/A   Overcast
2:53 PM 66.0 °F 64.9 °F 96% 30.19 in 10.0 mi NE 6.9 mph - N/A   Overcast
3:05 PM 66.9 °F 64.0 °F 90% 30.21 in 10.0 mi NNE 8.1 mph - N/A   Overcast
3:53 PM 66.9 °F 64.0 °F 90% 30.19 in 10.0 mi Variable 5.8 mph - N/A   Overcast
4:29 PM 68.0 °F 64.0 °F 87% 30.21 in 10.0 mi NE 5.8 mph - N/A   Overcast
4:53 PM 68.0 °F 64.0 °F 87% 30.20 in 10.0 mi ENE 6.9 mph - N/A   Overcast
5:02 PM 68.0 °F 64.0 °F 87% 30.21 in 10.0 mi NNE 5.8 mph - N/A   Mostly Cloudy
5:14 PM 68.0 °F 64.0 °F 87% 30.21 in 10.0 mi NNE 5.8 mph - N/A   Overcast
5:53 PM 66.9 °F 63.0 °F 87% 30.20 in 10.0 mi Variable 4.6 mph - N/A   Overcast
6:53 PM 64.9 °F 63.0 °F 93% 30.21 in 10.0 mi NE 8.1 mph - N/A   Overcast
7:53 PM 64.0 °F 62.1 °F 93% 30.22 in 10.0 mi ENE 5.8 mph - N/A   Overcast
8:44 PM 64.0 °F 62.1 °F 93% 30.23 in 10.0 mi ENE 4.6 mph - N/A   Overcast
8:53 PM 63.0 °F 62.1 °F 97% 30.22 in 10.0 mi ENE 4.6 mph - N/A   Mostly Cloudy
9:09 PM 63.0 °F 61.0 °F 93% 30.23 in 10.0 mi NE 3.5 mph - N/A   Scattered Clouds
9:53 PM 62.1 °F 61.0 °F 96% 30.22 in 10.0 mi Calm Calm - N/A   Clear
10:37 PM 61.0 °F 60.1 °F 97% 30.24 in 10.0 mi ENE 4.6 mph - N/A   Scattered Clouds
10:53 PM 61.0 °F 60.1 °F 97% 30.23 in 10.0 mi NE 4.6 mph - N/A   Scattered Clouds
11:26 PM 61.0 °F 61.0 °F 100% 30.24 in 10.0 mi NE 4.6 mph - N/A   Mostly Cloudy
11:53 PM 61.0 °F 60.1 °F 97% 30.23 in 10.0 mi East 4.6 mph - N/A   Mostly Cloudy